TimeCDT,TemperatureF,Dew PointF,Humidity,Sea Level PressureIn,VisibilityMPH,Wind Direction,Wind SpeedMPH,Gust SpeedMPH,PrecipitationIn,Events,Conditions,WindDirDegrees,DateUTC
12:35 AM,6.8,1.4,79,30.34,10.0,WNW,16.1,-,N/A,,Clear,290,2013-03-20 05:35:00
12:55 AM,6.8,1.4,79,30.33,10.0,WNW,17.3,-,N/A,,Clear,290,2013-03-20 05:55:00
1:15 AM,6.8,1.4,79,30.34,10.0,WNW,16.1,-,N/A,,Clear,300,2013-03-20 06:15:00
1:35 AM,6.8,1.4,79,30.34,10.0,WNW,16.1,-,N/A,,Clear,300,2013-03-20 06:35:00
1:55 AM,6.8,1.4,79,30.35,10.0,WNW,12.7,19.6,N/A,,Clear,290,2013-03-20 06:55:00
2:15 AM,5.0,-0.4,78,30.35,10.0,WNW,12.7,-,N/A,,Clear,290,2013-03-20 07:15:00
2:34 AM,5.0,-0.4,78,30.35,10.0,WNW,12.7,-,N/A,,Clear,290,2013-03-20 07:34:00
2:55 AM,3.2,-0.4,85,30.35,10.0,WNW,12.7,-,N/A,,Clear,290,2013-03-20 07:55:00
3:14 AM,3.2,-2.2,78,30.35,10.0,WNW,11.5,-,N/A,,Clear,290,2013-03-20 08:14:00
3:35 AM,3.2,-2.2,78,30.35,10.0,WNW,12.7,-,N/A,,Clear,290,2013-03-20 08:35:00
3:55 AM,3.2,-2.2,78,30.35,10.0,WNW,12.7,-,N/A,,Clear,290,2013-03-20 08:55:00
4:15 AM,1.4,-2.2,85,30.35,10.0,WNW,12.7,-,N/A,,Clear,290,2013-03-20 09:15:00
4:35 AM,1.4,-4.0,78,30.35,10.0,WNW,12.7,-,N/A,,Clear,290,2013-03-20 09:35:00
4:54 AM,1.4,-4.0,78,30.35,10.0,WNW,12.7,-,N/A,,Clear,290,2013-03-20 09:54:00
5:15 AM,1.4,-4.0,78,30.35,10.0,West,11.5,-,N/A,,Clear,280,2013-03-20 10:15:00
5:34 AM,1.4,-4.0,78,30.35,10.0,West,10.4,-,N/A,,Clear,280,2013-03-20 10:34:00
5:54 AM,-0.4,-4.0,85,30.35,10.0,West,11.5,-,N/A,,Clear,280,2013-03-20 10:54:00
6:14 AM,-0.4,-4.0,85,30.36,10.0,West,12.7,-,N/A,,Clear,280,2013-03-20 11:14:00
6:34 AM,1.4,-4.0,78,30.36,10.0,West,12.7,-,N/A,,Clear,280,2013-03-20 11:34:00
6:54 AM,-0.4,-5.8,78,30.36,10.0,WNW,13.8,-,N/A,,Clear,290,2013-03-20 11:54:00
7:15 AM,-0.4,-5.8,78,30.36,10.0,West,12.7,-,N/A,,Clear,280,2013-03-20 12:15:00
7:34 AM,-0.4,-5.8,78,30.36,10.0,West,11.5,-,N/A,,Clear,280,2013-03-20 12:34:00
7:54 AM,-0.4,-5.8,78,30.36,10.0,West,10.4,-,N/A,,Clear,280,2013-03-20 12:54:00
8:15 AM,1.4,-4.0,78,30.35,10.0,WNW,10.4,-,N/A,,Clear,290,2013-03-20 13:15:00
8:35 AM,1.4,-5.8,72,30.35,10.0,WNW,11.5,-,N/A,,Clear,290,2013-03-20 13:35:00
8:54 AM,1.4,-4.0,78,30.35,10.0,West,12.7,-,N/A,,Clear,280,2013-03-20 13:54:00
9:14 AM,1.4,-4.0,78,30.35,10.0,West,12.7,-,N/A,,Clear,280,2013-03-20 14:14:00
9:35 AM,3.2,-2.2,78,30.35,10.0,WNW,12.7,-,N/A,,Clear,290,2013-03-20 14:35:00
9:54 AM,3.2,-2.2,78,30.35,10.0,WNW,12.7,-,N/A,,Clear,290,2013-03-20 14:54:00
10:14 AM,5.0,-2.2,72,30.34,10.0,WNW,11.5,-,N/A,,Clear,290,2013-03-20 15:14:00
10:34 AM,6.8,-0.4,72,30.34,10.0,WNW,12.7,-,N/A,,Clear,290,2013-03-20 15:34:00
10:54 AM,6.8,-0.4,72,30.34,10.0,WNW,12.7,-,N/A,,Clear,290,2013-03-20 15:54:00
11:14 AM,6.8,-0.4,72,30.33,10.0,WNW,15.0,-,N/A,,Clear,290,2013-03-20 16:14:00
11:34 AM,8.6,1.4,73,30.33,10.0,WNW,13.8,-,N/A,,Clear,290,2013-03-20 16:34:00
11:54 AM,8.6,1.4,73,30.33,10.0,WNW,15.0,-,N/A,,Clear,290,2013-03-20 16:54:00
12:17 PM,10.4,1.4,67,30.33,10.0,WNW,15.0,-,N/A,,Clear,290,2013-03-20 17:17:00
12:35 PM,10.4,3.2,73,30.33,10.0,WNW,13.8,-,N/A,,Clear,290,2013-03-20 17:35:00
12:55 PM,12.2,3.2,67,30.32,10.0,WNW,15.0,-,N/A,,Clear,290,2013-03-20 17:55:00
1:15 PM,12.2,3.2,67,30.31,10.0,WNW,12.7,-,N/A,,Clear,290,2013-03-20 18:15:00
1:35 PM,12.2,5.0,73,30.30,10.0,WNW,13.8,-,N/A,,Clear,300,2013-03-20 18:35:00
1:55 PM,12.2,5.0,73,30.30,10.0,NW,15.0,-,N/A,,Clear,310,2013-03-20 18:55:00
2:15 PM,14.0,5.0,67,30.29,10.0,NW,15.0,-,N/A,,Clear,310,2013-03-20 19:15:00
2:34 PM,14.0,5.0,67,30.28,10.0,WNW,12.7,-,N/A,,Clear,290,2013-03-20 19:34:00
2:55 PM,15.8,6.8,68,30.28,10.0,WNW,12.7,-,N/A,,Clear,300,2013-03-20 19:55:00
3:15 PM,15.8,6.8,68,30.27,10.0,WNW,12.7,-,N/A,,Clear,290,2013-03-20 20:15:00
3:35 PM,15.8,5.0,62,30.26,10.0,WNW,15.0,-,N/A,,Clear,300,2013-03-20 20:35:00
3:54 PM,15.8,6.8,68,30.27,10.0,NW,12.7,-,N/A,,Clear,310,2013-03-20 20:54:00
4:15 PM,15.8,5.0,62,30.26,10.0,WNW,12.7,-,N/A,,Clear,300,2013-03-20 21:15:00
4:35 PM,15.8,5.0,62,30.25,10.0,NW,11.5,-,N/A,,Clear,310,2013-03-20 21:35:00
4:55 PM,15.8,3.2,58,30.25,10.0,NW,11.5,16.1,N/A,,Clear,310,2013-03-20 21:55:00
5:14 PM,15.8,3.2,58,30.25,10.0,NW,11.5,-,N/A,,Clear,320,2013-03-20 22:14:00
5:35 PM,15.8,3.2,58,30.24,10.0,NW,11.5,-,N/A,,Clear,320,2013-03-20 22:35:00
5:54 PM,15.8,3.2,58,30.24,10.0,NW,11.5,-,N/A,,Clear,320,2013-03-20 22:54:00
6:15 PM,15.8,3.2,58,30.23,10.0,NW,11.5,-,N/A,,Clear,320,2013-03-20 23:15:00
6:34 PM,15.8,3.2,58,30.23,10.0,WNW,10.4,-,N/A,,Clear,300,2013-03-20 23:34:00
6:54 PM,14.0,3.2,62,30.22,10.0,WNW,8.1,-,N/A,,Clear,300,2013-03-20 23:54:00
7:14 PM,12.2,3.2,67,30.22,10.0,NW,8.1,-,N/A,,Clear,310,2013-03-21 00:14:00
7:35 PM,10.4,3.2,73,30.22,10.0,WNW,6.9,-,N/A,,Clear,300,2013-03-21 00:35:00
7:55 PM,10.4,1.4,67,30.22,10.0,West,5.8,-,N/A,,Clear,280,2013-03-21 00:55:00
8:14 PM,10.4,1.4,67,30.22,10.0,WNW,4.6,-,N/A,,Clear,290,2013-03-21 01:14:00
8:34 PM,8.6,1.4,73,30.22,10.0,WNW,5.8,-,N/A,,Clear,290,2013-03-21 01:34:00
8:54 PM,8.6,1.4,73,30.22,10.0,WNW,5.8,-,N/A,,Clear,300,2013-03-21 01:54:00
9:14 PM,8.6,1.4,73,30.21,10.0,NW,4.6,-,N/A,,Clear,320,2013-03-21 02:14:00
9:35 PM,6.8,-0.4,72,30.21,10.0,Calm,Calm,-,N/A,,Clear,0,2013-03-21 02:35:00
9:54 PM,6.8,1.4,79,30.22,10.0,Calm,Calm,-,N/A,,Clear,0,2013-03-21 02:54:00
10:15 PM,5.0,-0.4,78,30.22,10.0,WNW,3.5,-,N/A,,Clear,290,2013-03-21 03:15:00
10:34 PM,3.2,-0.4,85,30.22,10.0,Calm,Calm,-,N/A,,Clear,0,2013-03-21 03:34:00
10:54 PM,3.2,-0.4,85,30.21,10.0,Calm,Calm,-,N/A,,Clear,0,2013-03-21 03:54:00
11:15 PM,3.2,-0.4,85,30.20,10.0,Calm,Calm,-,N/A,,Clear,0,2013-03-21 04:15:00
11:34 PM,3.2,-0.4,85,30.19,10.0,Calm,Calm,-,N/A,,Clear,0,2013-03-21 04:34:00
11:55 PM,3.2,-0.4,85,30.19,10.0,Calm,Calm,-,N/A,,Clear,0,2013-03-21 04:55:00